Terug naar catalogus

STARLINK-38129

ActiefCommunicatieSSO
NORAD 100268·PAYLOAD·🇺🇸 United States

Gelanceerd Aug 8, 2026 vanaf Vandenberg Space Force Base

Loading…

Volgende Passages (komende 24 uur)

TLE

VersSource: Space-Track

Epoch: Sep 14, 2026, 02:49 UTC

1 A0268U 26181Y   26257.11804474  .00073043  00000-0  48561-3 0  9999
2 A0268  97.2837 300.3664 0001937  68.9934 291.1538 15.75226730  6941

Volg STARLINK-38129 in realtime met AllMySat

Download on the App Store